Other Surface Observations
Issued by NWS Tucson, AZ

Home | Current Version | Previous Version | Text Only | Print | Product List | Glossary On
Versions: 1 2 3 4 5 6 7 8 9 10 11 12 13 14 15 16 17 18 19 20 21 22 23 24 25 26 27 28 29 30 31 32 33 34 35 36 37 38 39 40 41 42 43 44 45 46 47 48 49 50
000
SXUS55 KTWC 282315
OSOTWC

WEATHER ROUNDUP FOR SOUTHEAST ARIZONA
NATIONAL WEATHER SERVICE TUCSON AZ
415 PM MST TUE MAR 28 2017

AZZ504>506-514-290015-
LOCATION       SKY/WX    TMP DP  RH WIND       PRES   REMARKS
TUCSON         MOSUNNY   70  29  21 NW12G23   29.89F
DAVIS-MONTHAN  SUNNY     69  31  24 NW14G22   29.87F
CHILDRENS PARK N/A      N/A N/A  25 NW10              PIMA CO DEQ
ALVERNON/22ND  N/A       67 N/A N/A NW9               PIMA CO DEQ
CHERRY/GLENN   N/A       71 N/A N/A W8                PIMA CO DEQ
TANGERINE      N/A       68 N/A N/A NW8               PIMA CO DEQ
CONTL RANCH    N/A       70  29  22 NW10              PIMA CO DEQ
GRANT/1ST      N/A       68  30  24 NW11              PIMA CO DEQ
CRAYCROFT/22ND N/A       68  32  26 N/A               PIMA CO DEQ
GOLFLINKS/KOLB N/A       67  31  26 NW12              PIMA CO DEQ
AJO/12TH       N/A       68  31  25 W12               PIMA CO DEQ
FAIRGROUNDS    N/A       66 N/A N/A NW16              PIMA CO DEQ
SAGUARO        N/A       69  32  25 W10G22            *SABINO CYN
SAN CARLOS     N/A       68  31  25 NW8G13            *SAN CARLOS
GREEN VALLEY   N/A       67  30  25 W11               PIMA CO DEQ
HORSE CAMP CYN N/A       60  31  33 W14G23            *ARAVAIPA CYN
RINCON MTNS    NOT AVBL
$$

AZZ509>511-290015-
LOCATION       SKY/WX    TMP DP  RH WIND       PRES   REMARKS
SAFFORD        MOSUNNY   65  31  28 NW14G23   29.81F
STRAY HORSE    N/A       39  31  73 N/A               *
TRAIL CABIN    N/A       49  32  52 W8G18             *N OF GRANVILLE
BLACK HILLS    NOT AVBL
DRY LAKE       N/A       43  29  57 W7G13             *NATANES MTNS
NOON CREEK     NOT AVBL
COLUMBINE      N/A       35  29  78 W6G12             *PINALENO MTNS
GUTHRIE        N/A       50  28  42 W12G34            *SW OF GUTHRIE
$$

AZZ502-503-513-290015-
LOCATION       SKY/WX    TMP DP  RH WIND       PRES   REMARKS
NOGALES        MOSUNNY   67  27  22 NW10G21   29.90F
SELLS          N/A       73  28  19 NE10G17           *
SASABE         N/A       69  30  23 NW12G20           *ALTAR VLY
HOPKINS        N/A       56  29  36 NW16G30           *SANTA RITA MTNS
CARR CYN       N/A       58  27  30 N4G17             *W OF HEREFORD
$$

AZZ507-508-512-290015-
LOCATION       SKY/WX    TMP DP  RH WIND       PRES   REMARKS
SIERRA VISTA   SUNNY     60  26  27 W20G29    29.92F
DOUGLAS        PTSUNNY   64  25  22 NW24G35   29.88S
EMPIRE MTNS    NOT AVBL
MULESHOE RANCH N/A       60  32  34 NW13G22           *PRESERVE
HEADQUARTERS   NOT AVBL
$$

.............................NOTES.............................
THIS IS AN AUTOMATED COLLECTIVE WITH MINIMAL QUALITY CONTROL.
PIMA CO DEQ SITES HAVE NONSTANDARD WIND SENSOR HEIGHTS.
PIMA CO DEQ SITES DO NOT REPORT WIND GUSTS.
* INDICATES WIND SENSORS LOCATED AT 20 FEET INSTEAD OF 33 FEET.
..............................KEY..............................
SKY/WX - SKY CONDITION/WEATHER
TMP    - TEMPERATURE IN FAHRENHEIT
DP     - DEWPOINT IN FAHRENHEIT
RH     - RELATIVE HUMIDITY IN PERCENT
WIND   - DIRECTION AND SPEED IN MILES PER HOUR (MPH)
VRB    - VARIABLE WIND DIRECTION
PRES   - MEAN SEA LEVEL PRESSURE IN INCHES OF MERCURY
         F - FALLING PRESSURE   R - RISING PRESSURE
         S - STEADY PRESSURE
VSB    - VISIBILITY IN MILES
HX     - HEAT INDEX IN FAHRENHEIT
WCI    - WIND CHILL INDEX IN FAHRENHEIT
N/A    - NOT AVAILABLE
AFB    - AIR FORCE BASE
         DAVIS-MONTHAN IS DAVIS-MONTHAN AIR FORCE BASE
CYN    - CANYON
MTNS   - MOUNTAINS
NCA    - NATIONAL CONSERVATION AREA
NR     - NEAR
VLY    - VALLEY
CONTL  - CONTINENTAL
PIMA CO DEQ - PIMA COUNTY DEPT OF ENVIRONMENTAL QUALITY



USA.gov is the U.S. government's official web portal to all federal, state and local government web resources and services.